Time,TemperatureF,DewpointF,PressureIn,WindDirection,WindDirectionDegrees,WindSpeedMPH,WindSpeedGustMPH,Humidity,HourlyPrecipIn,Conditions,Clouds,dailyrainin,SoftwareType,DateUTC
2013-03-28 00:02:00,37.0,27.0,30.16,SE,136,0.0,0.0,66,0.00,,,0.00,,2013-03-28 05:02:00,
2013-03-28 00:12:00,37.0,27.0,30.16,SE,136,0.0,0.0,66,0.00,,,0.00,,2013-03-28 05:12:00,
2013-03-28 00:22:00,37.0,27.0,30.16,SE,136,0.0,0.0,67,0.00,,,0.00,,2013-03-28 05:22:00,
2013-03-28 00:32:00,37.0,27.0,30.16,SE,136,0.0,0.0,68,0.00,,,0.00,,2013-03-28 05:32:00,
2013-03-28 00:42:00,37.0,27.0,30.16,SE,136,0.0,0.0,68,0.00,,,0.00,,2013-03-28 05:42:00,
2013-03-28 00:52:00,36.0,27.0,30.16,SE,136,0.0,0.0,69,0.00,,,0.00,,2013-03-28 05:52:00,
2013-03-28 01:02:00,36.0,28.0,30.16,SE,136,0.0,0.0,71,0.00,,,0.00,,2013-03-28 06:02:00,
2013-03-28 01:12:00,36.0,28.0,30.16,SE,136,0.0,0.0,71,0.00,,,0.00,,2013-03-28 06:12:00,
2013-03-28 01:22:00,35.0,27.0,30.16,SE,136,0.0,1.0,72,0.00,,,0.00,,2013-03-28 06:22:00,
2013-03-28 01:32:00,35.0,27.0,30.16,SE,136,0.0,1.0,72,0.00,,,0.00,,2013-03-28 06:32:00,
2013-03-28 01:42:00,35.0,27.0,30.16,SE,136,0.0,1.0,72,0.00,,,0.00,,2013-03-28 06:42:00,
2013-03-28 01:52:00,33.0,26.0,30.17,SW,224,0.0,2.0,74,0.00,,,0.00,,2013-03-28 06:52:00,
2013-03-28 03:32:00,32.0,26.0,30.15,SW,224,0.0,1.0,77,0.00,,,0.00,,2013-03-28 08:32:00,
2013-03-28 03:42:00,32.0,26.0,30.15,SW,224,0.0,1.0,77,0.00,,,0.00,,2013-03-28 08:42:00,
2013-03-28 03:52:00,32.0,26.0,30.14,SW,224,0.0,1.0,77,0.00,,,0.00,,2013-03-28 08:52:00,
2013-03-28 04:02:00,31.0,25.0,30.14,SW,224,0.0,1.0,78,0.00,,,0.00,,2013-03-28 09:02:00,
2013-03-28 04:12:00,31.0,25.0,30.14,SW,224,0.0,1.0,78,0.00,,,0.00,,2013-03-28 09:12:00,
2013-03-28 04:22:00,32.0,26.0,30.14,SW,224,0.0,1.0,79,0.00,,,0.00,,2013-03-28 09:22:00,
2013-03-28 04:32:00,31.0,25.0,30.14,SW,224,0.0,0.0,79,0.00,,,0.00,,2013-03-28 09:32:00,
2013-03-28 04:42:00,31.0,25.0,30.14,SW,224,0.0,0.0,79,0.00,,,0.00,,2013-03-28 09:42:00,
2013-03-28 04:52:00,31.0,25.0,30.14,SW,224,0.0,0.0,79,0.00,,,0.00,,2013-03-28 09:52:00,
2013-03-28 05:03:00,31.0,25.0,30.14,SW,224,0.0,1.0,79,0.00,,,0.00,,2013-03-28 10:03:00,
2013-03-28 05:12:00,31.0,25.0,30.14,SW,224,0.0,1.0,79,0.00,,,0.00,,2013-03-28 10:12:00,
2013-03-28 05:22:00,32.0,26.0,30.13,SW,224,0.0,1.0,79,0.00,,,0.00,,2013-03-28 10:22:00,
2013-03-28 05:33:00,32.0,26.0,30.13,SW,224,0.0,0.0,78,0.00,,,0.00,,2013-03-28 10:33:00,
2013-03-28 05:42:00,32.0,26.0,30.13,SW,224,0.0,0.0,78,0.00,,,0.00,,2013-03-28 10:42:00,
2013-03-28 05:52:00,32.0,26.0,30.13,SW,224,0.0,2.0,79,0.00,,,0.00,,2013-03-28 10:52:00,
2013-03-28 06:02:00,33.0,27.0,30.13,SW,224,0.0,2.0,78,0.00,,,0.00,,2013-03-28 11:02:00,
2013-03-28 06:12:00,33.0,27.0,30.13,SW,224,0.0,2.0,78,0.00,,,0.00,,2013-03-28 11:12:00,
2013-03-28 06:23:00,33.0,27.0,30.13,SW,224,0.0,0.0,79,0.00,,,0.00,,2013-03-28 11:23:00,
2013-03-28 06:32:00,32.0,26.0,30.13,SW,225,0.0,1.0,79,0.00,,,0.00,,2013-03-28 11:32:00,
2013-03-28 06:42:00,32.0,26.0,30.13,SW,225,0.0,1.0,79,0.00,,,0.00,,2013-03-28 11:42:00,
2013-03-28 06:52:00,31.0,26.0,30.12,South,176,0.0,2.0,80,0.00,,,0.00,,2013-03-28 11:52:00,
2013-03-28 07:02:00,31.0,26.0,30.12,South,176,0.0,1.0,80,0.00,,,0.00,,2013-03-28 12:02:00,
2013-03-28 07:12:00,31.0,26.0,30.12,South,176,0.0,1.0,80,0.00,,,0.00,,2013-03-28 12:12:00,
2013-03-28 07:22:00,31.0,25.0,30.13,South,176,0.0,0.0,79,0.00,,,0.00,,2013-03-28 12:22:00,
2013-03-28 07:32:00,31.0,26.0,30.13,South,176,0.0,0.0,80,0.00,,,0.00,,2013-03-28 12:32:00,
2013-03-28 07:42:00,31.0,26.0,30.13,South,176,0.0,0.0,80,0.00,,,0.00,,2013-03-28 12:42:00,
2013-03-28 07:52:00,30.0,25.0,30.13,South,176,0.0,0.0,81,0.00,,,0.00,,2013-03-28 12:52:00,
2013-03-28 08:02:00,30.0,25.0,30.12,South,176,0.0,1.0,81,0.00,,,0.00,,2013-03-28 13:02:00,
2013-03-28 08:12:00,30.0,25.0,30.12,South,176,0.0,1.0,81,0.00,,,0.00,,2013-03-28 13:12:00,
2013-03-28 08:22:00,30.0,25.0,30.11,South,176,0.0,2.0,82,0.00,,,0.00,,2013-03-28 13:22:00,
2013-03-28 08:32:00,31.0,26.0,30.13,South,176,0.0,0.0,82,0.00,,,0.00,,2013-03-28 13:32:00,
2013-03-28 08:42:00,31.0,26.0,30.13,South,176,0.0,0.0,82,0.00,,,0.00,,2013-03-28 13:42:00,
2013-03-28 08:52:00,31.0,26.0,30.14,South,176,0.0,1.0,82,0.00,,,0.00,,2013-03-28 13:52:00,
2013-03-28 09:02:00,33.0,28.0,30.14,ENE,61,1.0,3.0,80,0.00,,,0.00,,2013-03-28 14:02:00,
2013-03-28 09:12:00,33.0,28.0,30.14,ENE,61,1.0,3.0,80,0.00,,,0.00,,2013-03-28 14:12:00,
2013-03-28 09:22:00,35.0,29.0,30.13,ENE,69,0.0,3.0,77,0.00,,,0.00,,2013-03-28 14:22:00,
2013-03-28 09:32:00,37.0,30.0,30.14,ENE,69,0.0,2.0,75,0.00,,,0.00,,2013-03-28 14:32:00,
2013-03-28 09:42:00,37.0,30.0,30.14,ENE,69,0.0,2.0,75,0.00,,,0.00,,2013-03-28 14:42:00,
2013-03-28 09:52:00,39.0,31.0,30.14,ENE,69,0.0,2.0,72,0.00,,,0.00,,2013-03-28 14:52:00,
2013-03-28 10:02:00,41.0,31.0,30.14,ESE,107,0.0,1.0,67,0.00,,,0.00,,2013-03-28 15:02:00,
2013-03-28 10:12:00,41.0,31.0,30.14,ESE,107,0.0,1.0,67,0.00,,,0.00,,2013-03-28 15:12:00,
2013-03-28 10:22:00,43.0,32.0,30.14,SE,138,1.0,3.0,64,0.00,,,0.00,,2013-03-28 15:22:00,
2013-03-28 10:33:00,45.0,32.0,30.12,SE,131,2.0,5.0,61,0.00,,,0.00,,2013-03-28 15:33:00,
2013-03-28 10:43:00,45.0,32.0,30.12,SE,131,2.0,5.0,61,0.00,,,0.00,,2013-03-28 15:43:00,
2013-03-28 10:52:00,46.0,33.0,30.13,SSW,195,3.0,7.0,61,0.00,,,0.00,,2013-03-28 15:52:00,
2013-03-28 11:02:00,49.0,34.0,30.14,SSE,150,1.0,7.0,57,0.00,,,0.00,,2013-03-28 16:02:00,
2013-03-28 11:12:00,49.0,34.0,30.14,SSE,150,1.0,7.0,57,0.00,,,0.00,,2013-03-28 16:12:00,
2013-03-28 11:23:00,51.0,33.0,30.12,ESE,110,2.0,8.0,50,0.00,,,0.00,,2013-03-28 16:23:00,
2013-03-28 11:32:00,53.0,33.0,30.12,South,173,3.0,10.0,46,0.00,,,0.00,,2013-03-28 16:32:00,
2013-03-28 11:42:00,53.0,33.0,30.12,South,173,3.0,10.0,46,0.00,,,0.00,,2013-03-28 16:42:00,
2013-03-28 11:52:00,53.0,31.0,30.12,SSE,147,5.0,12.0,43,0.00,,,0.00,,2013-03-28 16:52:00,
2013-03-28 12:02:00,54.0,31.0,30.12,South,181,3.0,12.0,41,0.00,,,0.00,,2013-03-28 17:02:00,
2013-03-28 12:12:00,54.0,31.0,30.12,South,181,3.0,12.0,41,0.00,,,0.00,,2013-03-28 17:12:00,
2013-03-28 12:22:00,55.0,31.0,30.11,SSW,201,4.0,13.0,39,0.00,,,0.00,,2013-03-28 17:22:00,
2013-03-28 12:32:00,56.0,29.0,30.11,SE,130,7.0,12.0,36,0.00,,,0.00,,2013-03-28 17:32:00,
2013-03-28 12:42:00,56.0,29.0,30.11,SE,130,7.0,12.0,36,0.00,,,0.00,,2013-03-28 17:42:00,
2013-03-28 12:52:00,57.0,30.0,30.11,SSW,200,6.0,13.0,36,0.00,,,0.00,,2013-03-28 17:52:00,
2013-03-28 13:02:00,57.0,30.0,30.10,East,97,3.0,13.0,35,0.00,,,0.00,,2013-03-28 18:02:00,
2013-03-28 13:12:00,57.0,30.0,30.10,East,97,3.0,13.0,35,0.00,,,0.00,,2013-03-28 18:12:00,
2013-03-28 13:22:00,57.0,28.0,30.09,East,86,3.0,14.0,33,0.00,,,0.00,,2013-03-28 18:22:00,
2013-03-28 13:32:00,58.0,28.0,30.09,SSE,151,5.0,13.0,32,0.00,,,0.00,,2013-03-28 18:32:00,
2013-03-28 13:42:00,58.0,28.0,30.09,SSE,151,5.0,13.0,32,0.00,,,0.00,,2013-03-28 18:42:00,
2013-03-28 13:52:00,59.0,28.0,30.09,East,101,7.0,14.0,31,0.00,,,0.00,,2013-03-28 18:52:00,
2013-03-28 14:02:00,59.0,28.0,30.08,SSW,205,6.0,12.0,31,0.00,,,0.00,,2013-03-28 19:02:00,
2013-03-28 14:12:00,59.0,28.0,30.08,SSW,205,6.0,12.0,31,0.00,,,0.00,,2013-03-28 19:12:00,
2013-03-28 14:22:00,59.0,28.0,30.08,SSW,205,6.0,12.0,31,0.00,,,0.00,,2013-03-28 19:22:00,
2013-03-28 14:33:00,60.0,31.0,30.08,SSW,213,5.0,12.0,33,0.00,,,0.00,,2013-03-28 19:33:00,
2013-03-28 14:42:00,60.0,31.0,30.08,SSW,213,5.0,12.0,33,0.00,,,0.00,,2013-03-28 19:42:00,
2013-03-28 14:52:00,61.0,30.0,30.07,SW,231,6.0,12.0,31,0.00,,,0.00,,2013-03-28 19:52:00,
2013-03-28 15:03:00,62.0,32.0,30.06,SW,225,9.0,15.0,32,0.00,,,0.00,,2013-03-28 20:03:00,
2013-03-28 15:12:00,62.0,32.0,30.06,SW,225,9.0,15.0,32,0.00,,,0.00,,2013-03-28 20:12:00,
2013-03-28 15:22:00,62.0,32.0,30.06,SW,221,7.0,14.0,32,0.00,,,0.00,,2013-03-28 20:22:00,
2013-03-28 15:32:00,63.0,32.0,30.05,WSW,248,8.0,15.0,31,0.00,,,0.00,,2013-03-28 20:32:00,
2013-03-28 15:42:00,63.0,32.0,30.05,WSW,248,8.0,15.0,31,0.00,,,0.00,,2013-03-28 20:42:00,
2013-03-28 15:53:00,63.0,31.0,30.04,WSW,244,3.0,14.0,30,0.00,,,0.00,,2013-03-28 20:53:00,
2013-03-28 16:02:00,64.0,33.0,30.04,SSW,196,1.0,12.0,31,0.00,,,0.00,,2013-03-28 21:02:00,
2013-03-28 16:12:00,64.0,33.0,30.04,SSW,196,1.0,12.0,31,0.00,,,0.00,,2013-03-28 21:12:00,
2013-03-28 16:22:00,64.0,32.0,30.03,SSW,207,3.0,11.0,30,0.00,,,0.00,,2013-03-28 21:22:00,
2013-03-28 16:32:00,64.0,31.0,30.03,SW,229,9.0,16.0,29,0.00,,,0.00,,2013-03-28 21:32:00,
2013-03-28 16:43:00,64.0,31.0,30.03,SW,229,9.0,16.0,29,0.00,,,0.00,,2013-03-28 21:43:00,
2013-03-28 16:53:00,64.0,32.0,30.02,SW,227,3.0,15.0,30,0.00,,,0.00,,2013-03-28 21:53:00,
2013-03-28 17:02:00,64.0,32.0,30.02,SSE,163,5.0,13.0,30,0.00,,,0.00,,2013-03-28 22:02:00,
2013-03-28 17:12:00,64.0,32.0,30.02,SSE,163,5.0,13.0,30,0.00,,,0.00,,2013-03-28 22:12:00,
2013-03-28 17:22:00,65.0,31.0,30.01,SW,229,5.0,14.0,28,0.00,,,0.00,,2013-03-28 22:22:00,
2013-03-28 17:32:00,65.0,32.0,30.01,SW,215,5.0,11.0,29,0.00,,,0.00,,2013-03-28 22:32:00,
2013-03-28 17:42:00,65.0,32.0,30.01,SW,215,5.0,11.0,29,0.00,,,0.00,,2013-03-28 22:42:00,
2013-03-28 17:52:00,65.0,32.0,30.01,East,90,5.0,12.0,29,0.00,,,0.00,,2013-03-28 22:52:00,
2013-03-28 18:02:00,65.0,34.0,30.01,NNW,327,3.0,14.0,31,0.00,,,0.00,,2013-03-28 23:02:00,
2013-03-28 18:12:00,65.0,34.0,30.01,NNW,327,3.0,14.0,31,0.00,,,0.00,,2013-03-28 23:12:00,
2013-03-28 18:22:00,64.0,33.0,30.01,SSE,155,2.0,10.0,31,0.00,,,0.00,,2013-03-28 23:22:00,
2013-03-28 18:32:00,64.0,33.0,30.01,SE,128,5.0,10.0,31,0.00,,,0.00,,2013-03-28 23:32:00,
2013-03-28 18:42:00,64.0,33.0,30.01,SE,128,5.0,10.0,31,0.00,,,0.00,,2013-03-28 23:42:00,
2013-03-28 18:53:00,65.0,33.0,30.01,WSW,242,2.0,10.0,30,0.00,,,0.00,,2013-03-28 23:53:00,
2013-03-28 19:02:00,65.0,33.0,30.01,SW,236,3.0,8.0,30,0.00,,,0.00,,2013-03-29 00:02:00,
2013-03-28 19:12:00,65.0,33.0,30.01,SW,236,3.0,8.0,30,0.00,,,0.00,,2013-03-29 00:12:00,
2013-03-28 19:22:00,65.0,32.0,30.01,SE,134,2.0,8.0,29,0.00,,,0.00,,2013-03-29 00:22:00,
2013-03-28 19:32:00,64.0,33.0,30.01,SE,139,4.0,10.0,31,0.00,,,0.00,,2013-03-29 00:32:00,
2013-03-28 19:42:00,64.0,33.0,30.01,SE,139,4.0,10.0,31,0.00,,,0.00,,2013-03-29 00:42:00,
2013-03-28 19:52:00,62.0,32.0,30.01,SSE,165,3.0,10.0,32,0.00,,,0.00,,2013-03-29 00:52:00,
2013-03-28 20:02:00,61.0,32.0,30.02,SSE,153,2.0,8.0,33,0.00,,,0.00,,2013-03-29 01:02:00,
2013-03-28 20:12:00,61.0,32.0,30.02,SSE,153,2.0,8.0,33,0.00,,,0.00,,2013-03-29 01:12:00,
2013-03-28 20:22:00,60.0,32.0,30.02,SSE,167,2.0,8.0,35,0.00,,,0.00,,2013-03-29 01:22:00,
2013-03-28 20:32:00,59.0,32.0,30.02,SE,127,2.0,6.0,36,0.00,,,0.00,,2013-03-29 01:32:00,
2013-03-28 20:42:00,59.0,32.0,30.02,SE,127,2.0,6.0,36,0.00,,,0.00,,2013-03-29 01:42:00,
2013-03-28 20:52:00,57.0,32.0,30.03,SSE,150,2.0,6.0,38,0.00,,,0.00,,2013-03-29 01:52:00,
2013-03-28 21:02:00,56.0,32.0,30.03,South,173,3.0,8.0,40,0.00,,,0.00,,2013-03-29 02:02:00,
2013-03-28 21:12:00,56.0,32.0,30.03,South,173,3.0,8.0,40,0.00,,,0.00,,2013-03-29 02:12:00,
2013-03-28 21:22:00,56.0,32.0,30.04,SSE,162,2.0,8.0,40,0.00,,,0.00,,2013-03-29 02:22:00,
2013-03-28 21:32:00,55.0,32.0,30.05,SE,127,2.0,7.0,41,0.00,,,0.00,,2013-03-29 02:32:00,
2013-03-28 21:42:00,55.0,32.0,30.05,SE,127,2.0,7.0,41,0.00,,,0.00,,2013-03-29 02:42:00,
2013-03-28 21:53:00,54.0,31.0,30.06,SE,138,1.0,4.0,42,0.00,,,0.00,,2013-03-29 02:53:00,
2013-03-28 22:02:00,52.0,31.0,30.06,SE,125,2.0,5.0,44,0.00,,,0.00,,2013-03-29 03:02:00,
2013-03-28 22:12:00,52.0,31.0,30.06,SE,125,2.0,5.0,44,0.00,,,0.00,,2013-03-29 03:12:00,
2013-03-28 22:22:00,52.0,31.0,30.07,SSE,161,3.0,7.0,45,0.00,,,0.00,,2013-03-29 03:22:00,
2013-03-28 22:32:00,52.0,31.0,30.07,SE,136,2.0,8.0,45,0.00,,,0.00,,2013-03-29 03:32:00,
2013-03-28 22:42:00,52.0,31.0,30.07,SE,136,2.0,8.0,45,0.00,,,0.00,,2013-03-29 03:42:00,
2013-03-28 22:53:00,51.0,31.0,30.08,SE,130,1.0,5.0,46,0.00,,,0.00,,2013-03-29 03:53:00,
2013-03-28 23:03:00,50.0,31.0,30.08,SE,130,1.0,7.0,48,0.00,,,0.00,,2013-03-29 04:03:00,
2013-03-28 23:12:00,50.0,31.0,30.08,SE,130,1.0,7.0,48,0.00,,,0.00,,2013-03-29 04:12:00,
2013-03-28 23:22:00,50.0,31.0,30.08,ESE,114,2.0,6.0,48,0.00,,,0.00,,2013-03-29 04:22:00,
2013-03-28 23:33:00,50.0,31.0,30.08,South,170,3.0,8.0,48,0.00,,,0.00,,2013-03-29 04:33:00,
2013-03-28 23:43:00,50.0,31.0,30.08,South,170,3.0,8.0,48,0.00,,,0.00,,2013-03-29 04:43:00,
2013-03-28 23:52:00,49.0,31.0,30.09,SE,130,3.0,8.0,49,0.00,,,0.00,,2013-03-29 04:52:00,